TimeEEST,TemperatureF,Dew PointF,Humidity,Sea Level PressureIn,VisibilityMPH,Wind Direction,Wind SpeedMPH,Gust SpeedMPH,PrecipitationIn,Events,Conditions,WindDirDegrees,DateUTC
12:50 AM,73.4,55.4,53,29.89,6.2,North,8.1,-,N/A,,Partly Cloudy,350,2012-09-20 21:50:00
1:50 AM,73.4,57.2,57,29.89,6.2,NNW,4.6,-,N/A,,Partly Cloudy,330,2012-09-20 22:50:00
2:50 AM,71.6,59.0,64,29.92,-9999.0,NNW,5.8,-,N/A,,Clear,340,2012-09-20 23:50:00
3:50 AM,73.4,57.2,57,29.89,-9999.0,NNW,8.1,-,N/A,,Clear,330,2012-09-21 00:50:00
4:50 AM,73.4,57.2,57,29.89,-9999.0,WNW,4.6,-,N/A,,Clear,300,2012-09-21 01:50:00
5:50 AM,69.8,57.2,64,29.92,-9999.0,NNW,9.2,-,N/A,,Clear,340,2012-09-21 02:50:00
6:20 AM,69.8,57.2,64,29.92,-9999.0,NW,9.2,-,N/A,,Clear,320,2012-09-21 03:20:00
6:50 AM,69.8,55.4,60,29.92,-9999.0,WNW,6.9,-,N/A,,Clear,300,2012-09-21 03:50:00
7:20 AM,68.0,53.6,60,29.92,-9999.0,NNW,8.1,-,N/A,,Clear,340,2012-09-21 04:20:00
7:50 AM,68.0,51.8,56,29.95,-9999.0,NNW,8.1,-,N/A,,Clear,330,2012-09-21 04:50:00
8:20 AM,69.8,51.8,53,29.95,-9999.0,NNW,8.1,-,N/A,,Clear,340,2012-09-21 05:20:00
8:50 AM,71.6,51.8,50,29.95,-9999.0,NW,8.1,-,N/A,,Clear,320,2012-09-21 05:50:00
9:20 AM,71.6,51.8,50,29.95,-9999.0,NW,8.1,-,N/A,,Clear,320,2012-09-21 06:20:00
9:50 AM,73.4,51.8,47,29.98,6.2,North,8.1,-,N/A,,Partly Cloudy,350,2012-09-21 06:50:00
10:20 AM,73.4,51.8,47,29.98,6.2,North,9.2,-,N/A,,Partly Cloudy,350,2012-09-21 07:20:00
10:50 AM,73.4,50.0,44,29.98,6.2,NNW,11.5,-,N/A,,Partly Cloudy,330,2012-09-21 07:50:00
11:20 AM,73.4,50.0,44,29.98,6.2,NNW,10.4,-,N/A,,Partly Cloudy,340,2012-09-21 08:20:00
11:50 AM,75.2,50.0,41,29.98,6.2,North,8.1,-,N/A,,Partly Cloudy,350,2012-09-21 08:50:00
12:20 PM,77.0,50.0,39,29.98,6.2,NNW,8.1,-,N/A,,Partly Cloudy,340,2012-09-21 09:20:00
12:50 PM,77.0,48.2,36,29.98,6.2,North,10.4,-,N/A,,Partly Cloudy,10,2012-09-21 09:50:00
1:20 PM,78.8,46.4,32,29.98,6.2,North,10.4,-,N/A,,Partly Cloudy,350,2012-09-21 10:20:00
1:50 PM,80.6,46.4,30,29.95,-9999.0,NNW,12.7,-,N/A,,Clear,340,2012-09-21 10:50:00
2:20 PM,80.6,48.2,32,29.95,-9999.0,South,4.6,-,N/A,,Clear,190,2012-09-21 11:20:00
2:50 PM,82.4,48.2,30,29.95,-9999.0,South,6.9,-,N/A,,Clear,180,2012-09-21 11:50:00
3:20 PM,82.4,48.2,30,29.95,-9999.0,South,11.5,-,N/A,,Clear,180,2012-09-21 12:20:00
3:50 PM,82.4,46.4,28,29.92,-9999.0,SSW,9.2,-,N/A,,Clear,200,2012-09-21 12:50:00
4:20 PM,82.4,42.8,25,29.92,-9999.0,SW,11.5,-,N/A,,Clear,220,2012-09-21 13:20:00
4:50 PM,82.4,46.4,28,29.92,-9999.0,SSW,12.7,-,N/A,,Clear,200,2012-09-21 13:50:00
5:20 PM,80.6,48.2,32,29.92,-9999.0,SSW,15.0,-,N/A,,Clear,200,2012-09-21 14:20:00
5:50 PM,80.6,44.6,28,29.92,-9999.0,SSW,11.5,-,N/A,,Clear,210,2012-09-21 14:50:00
6:20 PM,80.6,46.4,30,29.92,-9999.0,SSW,9.2,-,N/A,,Clear,210,2012-09-21 15:20:00
6:50 PM,78.8,48.2,34,29.92,-9999.0,SW,6.9,-,N/A,,Clear,220,2012-09-21 15:50:00
7:20 PM,77.0,48.2,36,29.92,-9999.0,NW,8.1,-,N/A,,Clear,310,2012-09-21 16:20:00
7:50 PM,75.2,57.2,53,29.95,-9999.0,West,4.6,-,N/A,,Clear,270,2012-09-21 16:50:00
8:20 PM,73.4,53.6,50,29.95,-9999.0,NW,5.8,-,N/A,,Clear,320,2012-09-21 17:20:00
8:50 PM,73.4,53.6,50,29.98,-9999.0,East,8.1,-,N/A,,Clear,90,2012-09-21 17:50:00
9:20 PM,71.6,51.8,50,29.98,-9999.0,North,5.8,-,N/A,,Clear,10,2012-09-21 18:20:00
9:50 PM,71.6,51.8,50,30.01,-9999.0,North,5.8,-,N/A,,Clear,10,2012-09-21 18:50:00
10:20 PM,69.8,50.0,49,30.01,-9999.0,Variable,2.3,-,N/A,,Clear,0,2012-09-21 19:20:00
10:50 PM,68.0,50.0,52,30.01,-9999.0,Variable,3.5,-,N/A,,Clear,0,2012-09-21 19:50:00
11:20 PM,66.2,50.0,56,30.04,-9999.0,Variable,3.5,-,N/A,,Clear,0,2012-09-21 20:20:00
11:50 PM,68.0,50.0,52,30.04,6.2,NNW,4.6,-,N/A,,Partly Cloudy,340,2012-09-21 20:50:00